www.pogodaiklimat.ru

Погода и климат >> Архив погоды >> Россия >> Амурская область >> Поярково


ПОГОДА в Поярково

  • Прогноз погоды в Поярково
  • Монитор погоды в Поярково

АРХИВ ПОГОДЫ в Поярково

Время (UTC), дата Ветер
(напр.,м/с)
 
Видим.   Явления Облачность Т
(С)
Тd
(С)
f
(%)
Тe
(С)
Тes
(С)
Комфортность P
(гПа)
Po
(гПа)
Тmin
(С)
Tmax
(С)
R
(мм)
R24
(мм)
S
(см)
00 16.04 ЮЗ 5-11
{11}
10 км 10/4 600 м
[Cb cap Ac lent Ci ing]
+16.8 -6.4 20 +16 +17 990.6 977.4 +1.0
03 16.04 ЮЗ 6-12
{14}
10 км 10/3 600 м
[Cb cap Ac lent Ci ing]
+22.1 -8.4 12 +20 +22 988.9 975.9
06 16.04 С 6-11
{14}
10 км 10/5 600 м
[Cb cap Ac lent Ci ing]
+11.2 -2.5 38 +9 +10 994.8 981.3
09 16.04 С 4
{14}
10 км 10/1 600 м
[Cb cap Ac lent Ci ing]
+11.1 -6.3 29 +9 +10 999.1 985.5
12 16.04 СВ 1
{10}
н/о 10/0
[Ac lent Ci ing]
+5.3 -6.2 43 +5 +5 1003.9 989.9 +22.2
15 16.04 С 1 н/о 10/0
[Ac lent Ci sp]
+2.2 -9.0 43 +1 +1 1006.5 992.3
18 16.04 С 1 н/о 10/0
[Ac und]
+1.4 -9.7 43 +1 +1 1007.1 992.9
21 16.04 С 1 10 км 10/8 600 м
[Cb cap Ac und]
+1.0 -10.4 42 0 0 1007.6 993.4
00 17.04 СВ 4 20 км 10/6 600 м
[Cb cap Ac und Ci ing]
+4.1 -10.4 34 +1 +2 1007.0 992.9 +0.4
03 17.04 СВ 4
{11}
10 км 10/10 1000 м
[Sc]
+3.2 -9.0 40 -1 -1 1005.3 991.2
06 17.04 СВ 5-11
{12}
10 км слаб. ливневой снег 10/10 600 м
[Cb cap]
-0.3 -2.6 84 -6 -6 1003.1 988.9
09 17.04 СВ 4
{13}
2000 м ливневой снег 10/10 600 м
[Cb cap]
-0.4 -1.6 92 -6 -6 1000.7 986.5
12 17.04 СВ 3
{10}
н/о слаб. ливневой снег 10/10 600 м
[Cb cap]
-0.3 -1.5 92 -5 -5 999.9 985.7 +4.3 2
15 17.04 С 6-10
{12}
н/о слаб. ливневой снег 10/10 600 м
[Cb cap]
-0.5 -1.5 93 -7 -7 997.6 983.4
18 17.04 С 7-15
{18}
н/о слаб. ливневой снег 10/10 600 м
[Cb cap]
-1.5 -2.6 92 -9 -9 995.6 981.4
21 17.04 С 8-15
{19}
500 м ливневой снег 10/10 600 м
[Cb cap]
-2.0 -3.3 91 -10 -10 997.2 983.0
00 18.04 С 9-17
{20}
500 м ливневой снег {метель} ?/? -1.8 -6.4 71 -10 -10 1001.5 987.1 -2.3 16 17
03 18.04 СЗ 8-14
{19}
10 км позёмок {ливн. осадки} 10/0
[Ac As]
+0.7 -10.4 43 -6 -5 1005.0 990.8
06 18.04 СЗ 8-13
{15}
20 км {ливн. осадки, метель} 10/3 600 м
[Cb calv Cs]
+3.7 -13.8 27 -2 -1 1007.5 993.4
09 18.04 СЗ 6-10
{14}
10 км 10/0
[Cs]
+3.1 -13.9 27 -2 -1 1010.1 995.9
12 18.04 СЗ 4
{11}
н/о 10/3 600 м
[Cb cap Ci fib]
+0.6 -16.0 28 -4 -4 1012.5 998.1 +4.5 0.7
15 18.04 СЗ 4
{10}
н/о 10/0
[Ci fib]
-1.8 -16.1 33 -7 -7 1013.7 999.2
18 18.04 СЗ 3 н/о 4/0
[Ci fib]
-4.6 -14.5 46 -9 -9 1014.5 999.9
21 18.04 СЗ 3 20 км ясно -5.3 -15.5 45 -10 -10 1015.6 1000.9
00 19.04 СЗ 5-10
{10}
10 км ясно -0.4 -14.8 33 -6 -2 1016.9 1002.4 -5.6 10
03 19.04 СЗ 5
{11}
10 км ясно +2.8 -15.3 25 -1 +6 1016.9 1002.6
06 19.04 СЗ 3
{11}
10 км ясно +6.0 -14.0 22 +4 +12 1015.3 1001.2
09 19.04 З 2 10 км ясно +7.2 -14.3 20 +6 +7 1014.1 1000.0
12 19.04 штиль 0 н/о 10/0
[Cs]
-1.1 -8.7 56 -2 -2 1014.2 999.7 +7.6
15 19.04 СВ 1 н/о 8/0
[Ci sp]
-4.0 -7.2 78 -6 -6 1013.3 998.7
18 19.04 В 1 н/о 4/0
[Ci fib]
-6.4 -8.7 84 -9 -9 1011.6 996.9
21 19.04 В 2 10 км 8/0
[Ac trans Ci]
-4.2 -9.9 64 -8 -8 1009.9 995.3
00 20.04 ЮВ 4 20 км 10/6 600 м
[Cb cap Ac trans Ci]
+2.1 -6.6 53 -2 -1 1006.0 991.8 -6.4 10
03 20.04 В 3 20 км 10/8 600 м
[Cb cap Ac As]
+5.3 -4.2 50 +3 +3 1003.1 989.1
06 20.04 Ю 3
{10}
10 км слаб. ливневой дождь 10/10 600 м
[Cb cap]
+7.6 -2.7 48 +5 +5 1001.7 987.9
09 20.04 ЮЗ 2 10 км {ливн. осадки} 4/0
[Ac cuf]
+10.5 -6.5 30 +10 +11 1000.6 986.9
12 20.04 З 2 н/о {ливн. осадки} 3/0
[Ac trans Ci fib]
+5.1 -6.6 43 +3 +3 1003.4 989.4 +11.1 0.0
15 20.04 С 2 н/о 1/0
[Ci fib]
+3.0 -9.5 39 +1 +1 1006.7 992.6
18 20.04 З 2 н/о ясно -0.7 -8.1 57 -4 -4 1008.5 994.2
21 20.04 З 2 20 км ясно -2.1 -8.5 62 -6 -5 1010.0 995.5
00 21.04 СЗ 5 20 км ясно +4.7 -9.7 34 +1 +5 1010.6 996.5 -3.0 2
03 21.04 СЗ 5
{12}
50 км 1/1 1000 м
[Cu hum]
+7.5 -12.1 23 +5 +11 1010.4 996.5
06 21.04 З 4
{12}
50 км 4/4 1000 м
[Cu med, cong]
+9.9 -14.3 17 +8 +12 1009.8 996.0
09 21.04 СЗ 4
{10}
50 км 6/6 1000 м
[Cu med, cong]
+10.1 -13.1 18 +8 +9 1010.0 996.1
12 21.04 СВ 1 н/о ясно +1.0 -8.0 51 -0 -0 1012.2 997.8 +10.7
15 21.04 С 1 н/о 3/3 1000 м
[Sc diur, vesp]
-3.1 -6.1 80 -5 -5 1013.6 999.0
18 21.04 Ю 1 н/о 3/3 1000 м
[Sc diur, vesp]
-5.0 -7.1 85 -7 -7 1015.0 1000.3
21 21.04 В 1 10 км 3/0
[Ci fib]
-5.5 -6.8 91 -8 -8 1015.1 1000.4
00 22.04 В 3 10 км 3/0
[Ci]
+5.0 -5.6 46 +2 +8 1015.1 1000.9 -6.3
03 22.04 В 4 10 км 10/0
[Ac lent Ci]
+11.2 -7.9 25 +10 +12 1013.0 999.2
06 22.04 В 3 10 км 10/0
[Ac trans Ci]
+13.7 -8.5 21 +13 +18 1010.4 996.8
09 22.04 В 3 10 км 10/4 600 м
[Cb cap Ac und]
+12.2 -6.0 28 +11 +11 1008.1 994.4
12 22.04 В 4 н/о 10/6 600 м
[Cb cap Ac und]
+6.6 -4.1 46 +4 +4 1006.9 993.0 +14.1
15 22.04 В 2
{11}
н/о 10/8 600 м
[Cb cap Ac und]
+8.1 -7.2 33 +7 +7 1003.9 990.0
18 22.04 ЮВ 2 н/о слаб. ливневой дождь 10/10 600 м
[Cb cap]
+7.2 +2.8 74 +5 +5 1002.4 988.5
21 22.04 В 4 10 км {ливн. осадки} 10/5 600 м
[Cb cap Ac cuf Ci ing]
+5.7 +2.4 79 +2 +2 1001.2 987.2

 

Местоположение метеостанции Поярково (Амурская область, Россия): широта 49.62 долгота 128.60 высота над уровнем моря 115 м.

В архиве по умолчанию представлена погода в Поярково за последнюю неделю. Архивные данные за месяц целиком и за предыдущие месяцы, начиная с января 2011 года, Вы можете получить, выбрав интересующий диапазон дат из раскрывающегося списка и нажав кнопку "Ввод!".


*Определитесь, кто Вы:
робот инопланетянин человек

Внимание! Время в таблицах - всемирное. Для получения местного времени необходимо прибавить поправку, которая равна 9 ч.

Смотрите также архив погоды в соседних городах и на ближайших метеорологических станциях:

Погода в Константиновке (Амурская область, Россия) (50 км)
Погода в Завитае (Амурская область, Россия) (80 км)
Погода в Екатеринославке (Амурская область, Россия) (88 км)
Погода в Суньу (Хэйлунцзян, Китай) (93 км)
Погода в Малиновке (Амурская область, Россия) (95 км)
Погода в Архаре (Амурская область, Россия) (104 км)
Погода в Айгуне (Хэйлунцзян, Китай) (108 км)
Погода в Благовещенске (Амурская область, Россия) (113 км)
Погода в Братолюбовке (Амурская область, Россия) (138 км)
Погода в Белогорске (Амурская область, Россия) (145 км)

Пояснения к столбцам:

Ветер - указаны скорость ветра в м/с - средняя за 10 мин, порывы в срок и между сроками (в фигурных скобках) и направление, откуда дует ветер: С - северный, СВ - северо-восточный, В - восточный, ЮВ - юго-восточный, Ю - южный, ЮЗ - юго-западный, З - западный, СЗ - северо-западный.
Видимость - горизонтальная дальность видимости в метрах или километрах. При видимости от 1 до 10 км при отсутствии осадков обычно наблюдается дымка, при ухудшении видимости до 1 км и менее - туман. В сухую погоду видимость может ухудшаться дымом, пылью или мглою.
Явления - указаны атмосферные явления, наблюдавшиеся в срок или в последний час перед сроком; фигурными скобками обозначены явления, наблюдавшиеся между сроками (за 1-3 часа до срока); квадратными скобками обозначены град или гололедные отложения с указанием их диаметра в мм.
Облачность - указаны через наклонную черту общая и нижняя облачность в баллах и высота нижней границы облаков в метрах; квадратными скобками обозначены формы облаков: Ci - перистые, Cs - перисто-слоистые, Cc - перисто-кучевые, Ac - высококучевые, As - высокослоистые, Sc - слоисто-кучевые, Ns - слоисто-дождевые, Cu - кучевые, Cb - кучево-дождевые. Подробнее классификацию облаков см. в Атласе облаков (PDF).
T - Температура воздуха - температура, измеренная на высоте 2 м над землей.
Td - Температура точки росы - температура, при понижении до которой содержащийся в воздухе водяной пар достигнет насыщения.
f - Относительная влажность воздуха - влажноcть воздуха, измеренная на высоте 2 м над землей.
Te - Эффективная температура - температура, которую ощущает одетый по сезону человек в тени. Характеристика душности погоды. При расчете учитывается влияние влажности воздуха и скорости ветра на теплоощущения человека.
Tes - Эффективная температура на солнце - температура, которую ощущает человек, с поправкой на солнечный нагрев. Характеристика знойности погоды. Зависит от высоты солнца над горизонтом, облачности и скорости ветра. Ночью, в пасмурную погоду, а также при ветре 12 м/с и более поправка равна нулю.
P - Атмосферное давление - приведенное к уровню моря атмосферное давление.
Po - Атмосферное давление - измеренное на уровне метеостанции атмосферное давление.
Tmin - Минимальная температура - минимум температуры воздуха на высоте 2 м над землей.
Tmax - Максимальная температура - максимум температуры воздуха на высоте 2 м над землей.
R - Количество осадков - Количество выпавших осадков за период времени, мм. При наведении курсора мыши на число - период времени, за который выпало указанное количество осадков.
R24 - Количество осадков - Количество выпавших осадков за 24 часа, мм.
S - Снежный покров - Высота снежного покрова, см. При наведении курсора мыши на число - состояние снежного покрова и степень покрытия местности в баллах.